Regional Weather Roundup
Issued by NWS

Home | Current Version | Previous Version | Text Only | Print | Product List | Glossary Off
Versions: 1 2 3 4 5 6 7 8 9 10 11 12 13 14 15 16 17 18 19 20 21 22 23 24 25 26 27 28 29 30 31 32 33 34 35 36 37 38 39 40 41 42 43 44 45 46 47 48 49 50

000
ASUS43 KDMX 261303
RWRIA

WEATHER ROUNDUP FOR IOWA
NATIONAL WEATHER SERVICE DES MOINES IA
800 AM CDT MON SEP 26 2016

NOTE: "FAIR" INDICATES FEW OR NO CLOUDS BELOW 12,000 FEET WITH NO
SIGNIFICANT WEATHER AND/OR OBSTRUCTIONS TO VISIBILITY.

* - THESE STATIONS ARE NOT NWS STATIONS...THUS NOT UNDER NWS
QUALITY CONTROL.  THEY ALSO DO NOT REPORT WEATHER SUCH
AS PRECIPITATION OR FOG.

IAZ001>003-012>014-020>022-031>034-043>046-261400-
   NORTHWEST IOWA

CITY           SKY/WX    TMP DP  RH WIND       PRES   REMARKS
CARROLL *      CLEAR     48  39  71 W10       30.18R
CHEROKEE *     CLEAR     43  39  86 SW3       30.17S
DENISON *      CLEAR     45  39  81 CALM      30.18S
LE MARS *      CLEAR     46  37  71 SW5       30.20R
ORANGE CITY *  CLEAR     43  37  81 W5        30.17S
SHELDON *      CLEAR     45  37  76 W8        30.14S
SIOUX CITY     CLEAR     47  39  74 NW6       30.21R
SPENCER        CLEAR     45  38  76 W12       30.14R
STORM LAKE *   CLEAR     43  37  81 W12       30.17R
$$

IAZ055>058-069>071-079>083-090>094-261400-
   SOUTHWEST IOWA

CITY           SKY/WX    TMP DP  RH WIND       PRES   REMARKS
ATLANTIC *     CLEAR     46  41  81 S6        30.22R
AUDUBON *      CLEAR     46  41  81 W3        30.21S
CLARINDA *       N/A     46  43  87 MISG      30.25R
COUNCIL BLFS * CLEAR     48  41  76 W6        30.23S
CRESTON *      CLEAR     45  41  87 W7        30.22S
HARLAN  *      CLEAR     46  41  81 CALM      30.25R
LAMONI         CLEAR     49  42  77 W9        30.20R
RED OAK *      PTCLDY    48  43  81 W8        30.23R
SHENANDOAH *   PTCLDY    45  43  93 SW5       30.25R
$$

IAZ047>049-059>061-072>074-084-261400-
   CENTRAL IOWA

CITY           SKY/WX    TMP DP  RH WIND       PRES   REMARKS
AMES           PTCLDY    49  43  80 W10       30.14S
ANKENY *         N/A    N/A N/A N/A MISG        N/A
BOONE *        CLEAR     48  39  71 W9G17     30.15R
CHARITON *       N/A     48  43  81 W12       30.18R
DES MOINES     CLEAR     52  41  66 NW8       30.16R
GRINNELL*      CLEAR     50  41  73 W12       30.14S
KNOXVILLE *    PTCLDY    48  43  81 W8        30.15R
MARSHALLTOWN   CLEAR     50  41  71 W12       30.11R
NEWTON *       PTCLDY    50  41  71 W8        30.14R
PELLA *        PTCLDY    53  43  67 W9        30.16R
PERRY *          N/A     49  43  80 W8        30.18R
$$

IAZ004>006-015-016-023>025-035-036-261400-
   NORTH CENTRAL IOWA

CITY           SKY/WX    TMP DP  RH WIND       PRES   REMARKS
ALGONA *       CLEAR     46  39  76 W10       30.11R
CLARION *      CLEAR     48  39  71 W13       30.11R
ESTHERVILLE    CLEAR     48  39  71 W9        30.10S
FORT DODGE *   CLEAR     46  37  71 W10       30.13R
MASON CITY     CLEAR     48  39  71 W14       30.08S
FOREST CITY *    N/A     46  37  71 W10       30.07S
WEBSTER CITY * CLEAR     48  41  76 W10       30.11S
IOWA FALLS *     N/A     48  41  76 W10       30.12R
$$

IAZ007>011-017>019-026>030-037>042-050>054-066-261400-
   NORTHEAST IOWA

CITY           SKY/WX    TMP DP  RH WIND       PRES   REMARKS
CEDAR RAPIDS   SUNNY     51  44  77 W12       30.09R
CHARLES CITY * CLEAR     50  41  71 W10       30.05S
CLINTON *      SUNNY     53  46  77 W9        30.07S
DECORAH *      SUNNY     50  41  71 W9G16     30.00S
DUBUQUE        SUNNY     50  44  80 W12       30.04R
MONTICELLO *   SUNNY     52  43  71 W10       30.06R
OELWEIN *      SUNNY     50  43  76 W10       30.06S
WATERLOO       CLEAR     50  41  71 W13       30.07R
$$

IAZ064-065-067-068-078-261400-
   EAST CENTRAL IOWA

CITY           SKY/WX    TMP DP  RH WIND       PRES   REMARKS
DAVENPORT      SUNNY     53  45  74 W9        30.08S
IOWA CITY      SUNNY     51  44  77 W8        30.12R
MT. PLEASANT * SUNNY     54  48  81 W8        30.14R
MUSCATINE *    SUNNY     54  45  71 W10       30.11R
QUAD CITIES    SUNNY     56  45  66 W10       30.08S
$$

IAZ062-063-075>077-085>089-095>099-261400-
   SOUTHEAST IOWA

CITY           SKY/WX    TMP DP  RH WIND       PRES   REMARKS
BURLINGTON     MOSUNNY   53  47  79 W6        30.13R
FAIRFIELD *    SUNNY     50  43  76 W8        30.14R
FORT MADISON * SUNNY     54  46  76 W7        30.15R
KEOKUK *       MOSUNNY   54  46  76 W7        30.15R
OSKALOOSA *      N/A     47  44  88 W6        30.15R
OTTUMWA        SUNNY     49  42  77 W8        30.15R
WASHINGTON *     N/A    N/A N/A N/A MISG        N/A
$$

ABBREVIATIONS USED IN REMARKS
   TC - TEMPERATURES IN CELSIUS
  WCI - WIND CHILL INDEX
   HX - HEAT INDEX
  VSB - VISIBILITY
$$





USA.gov is the U.S. government's official web portal to all federal, state and local government web resources and services.